Location: Cerbedi�res
(48.2182°N, 1.4849°W)
Time: 07:04:24
(UTC+00:00)

SJ 16-02 - Pass Details

Date: 03 March 2021
Orbit: 605 x 617 km, 75.0° (Epoch: 11 April)

Event Time Altitude Azimuth Distance (km) Brightness Sun altitude
Rises 19:33:36 0° 346° (NNW) 2,884 5.1 -17.4°
Reaches altitude 10° 19:36:08 10° 359° (N) 1,977 4.1 -17.8°
Enters shadow 19:39:38 26° 51° (NE) 1,206 2.5 -18.4°
